Regional Weather Roundup
Issued by NWS

Home | Current Version | Previous Version | Text Only | Print | Product List | Glossary On
Versions: 1 2 3 4 5 6 7 8 9 10 11 12 13 14 15 16 17 18 19 20 21 22 23 24 25 26 27
000
ASUS45 KBOU 240907
RWRCO

WEATHER ROUNDUP FOR COLORADO
NATIONAL WEATHER SERVICE DENVER/BOULDER CO
300 AM MDT SAT JUN 24 2017

NOTE: "FAIR" INDICATES FEW OR NO CLOUDS BELOW 12000 FEET WITH NO
SIGNIFICANT WEATHER AND/OR OBSTRUCTIONS TO VISIBILITY.

COZ001>005-013-030-031-241000-
...NORTHWEST COLORADO...

CITY           SKY/WX    TMP DP  RH WIND       PRES   REMARKS
CRAIG          FAIR      44  35  70 CALM      30.25S
HAYDEN         FAIR      48  30  49 E8        30.26S
MEEKER         FAIR      45  33  63 NE7       30.27S
RABBIT EARS PA FAIR      46  27  46 W7        30.48F
STEAMBOAT SPGS FAIR      43  35  72 E3        30.28S
WALDEN         FAIR      36  32  87 SE5       30.36F
$$

COZ006>008-011-241000-
...WEST CENTRAL VALLEYS...

CITY           SKY/WX    TMP DP  RH WIND       PRES   REMARKS
GRAND JUNCTION FAIR      71  22  15 CALM      30.10R
MONTROSE       FAIR      58  27  30 SE8       30.18S
EAGLE          FAIR      49  28  44 SE3       30.30R
RIFLE          FAIR      55  30  38 E5        30.19S
DELTA          FAIR      62  29  28 NE7       30.14R
NUCLA          FAIR      59  23  25 E9        30.21S
$$

COZ017>023-064>068-241000-
...SOUTHWEST COLORADO...

CITY           SKY/WX    TMP DP  RH WIND       PRES   REMARKS
DURANGO        FAIR      56  22  26 CALM      30.22R
CORTEZ         FAIR      51  29  42 NE7       30.18S
PAGOSA SPRINGS FAIR      51  18  27 NW3       30.31R
TELLURIDE      FAIR      52  21  30 CALM      30.43F
WOLF CREEK PAS FAIR      50  10  20 W7        30.67S
$$

COZ009-010-012-014-032>034-037-058>063-241000-
...CENTRAL COLORADO...

CITY           SKY/WX    TMP DP  RH WIND       PRES   REMARKS
ASPEN          FAIR      45  30  55 S6        30.33S
BUENA VISTA    CLOUDY    51  44  77 SE3       30.42F
COPPER MTN     FAIR      46  18  31 W9        30.59F
BERTHOUD PASS  FAIR      37  27  65 NW22G29   30.60S
COTTONWOOD PAS CLOUDY    46  43  87 CALM      30.51S
GUNNISON       FAIR      46  34  62 CALM      30.34S
KREMMLING      NOT AVBL
LEADVILLE      CLOUDY    42  38  85 CALM      30.49F
MONARCH PASS   FAIR      46  21  36 W9        30.71F
SALIDA         CLOUDY    54  46  76 CALM      30.48F
SUNLIGHT       FAIR      48  19  32 CALM      30.55S
WILKERSON PASS FAIR      36  32  87 CALM      30.58F FOG
$$

COZ069>075-241000-
...SAN LUIS VALLEY/SANGRE DE CRISTO MOUNTAINS...

CITY           SKY/WX    TMP DP  RH WIND       PRES   REMARKS
ALAMOSA        FAIR      49  43  80 SE8       30.32S
DEL NORTE      FAIR      48  32  55 NE5       30.36R
LA VETA PASS   SNOW      39  37  93 N3        30.61F VSB<1/4
SAGUACHE       FAIR      48  36  61 CALM      30.36S
$$

COZ035-036-038>040-241000-
...NORTHERN COLORADO FRONT RANGE...

CITY           SKY/WX    TMP DP  RH WIND       PRES   REMARKS
DENVER INTL AP FAIR      47  43  86 S8        30.31F
DMNS CITY PARK   N/A     49  47  92 SE8       30.31F
AURORA         MOCLDY    48  47  95 S6        30.32F
FRONT RANGE AP FAIR      48  46  93 SE8       30.32F
ERIE MUNI ARPT FAIR      50  47  90 CALM      30.29F
BOULDER MUN AP FAIR      52  45  76 CALM      30.29F
CENTENNIAL     MOCLDY    51  48  89 S7        30.32F
BROOMFIELD     FAIR      50  45  81 S3        30.31F
FORT COLLINS   CLOUDY    54  48  80 E6        30.30F
LONGMONT       FAIR      53  47  81 CALM      30.31F
$$

COZ041-046-047-076>085-087-088-241000-
...PIKES PEAK/PALMER DIVIDE AND SOUTHERN FOOTHILLS...

CITY           SKY/WX    TMP DP  RH WIND       PRES   REMARKS
COLO. SPRINGS  CLOUDY    54  49  83 S5        30.36F
A. F. ACADEMY  CLOUDY    52  48  87 SW3       30.37F
SCHRIEVER AFB  CLOUDY    53  47  80 W5        30.37F
CHEYENNE MTN   MOCLDY    51  45  79 S12G21    30.33S
ELLICOTT       CLOUDY   N/A N/A N/A SW3       30.35F
FALCON         NOT AVBL
FORT CARSON    CLOUDY    56  48  74 S5        30.34F
LIMON          CLOUDY    53  44  71 CALM      30.32F
MONUMENT HILL  CLOUDY    48  46  93 S6        30.40S
CANON CITY     CLOUDY    57  54  88 CALM      30.33F
WALSENBURG     CLOUDY    57  50  77 CALM      30.36F
TRINIDAD       CLOUDY    57  48  72 NW7       30.34S
$$

COZ042>045-048>051-090-091-241000-
...NORTHEAST COLORADO...

CITY           SKY/WX    TMP DP  RH WIND       PRES   REMARKS
GREELEY ARPT   FAIR      53  51  93 SE5       30.30F
AKRON          FAIR      54  35  48 E7        30.29F
BURLINGTON     FAIR      50  47  89 W7        30.27F
WRAY           FAIR      52  41  66 CALM      30.27F
YUMA           FAIR      50  41  71 CALM      30.27F
STERLING       CLOUDY    55  46  71 N5        30.27F
HOLYOKE        NOT AVBL
FORT MORGAN    FAIR      53  40  63 NE8       30.30S
$$

COZ086-089-092>099-241000-
...SOUTHEAST COLORADO...

CITY           SKY/WX    TMP DP  RH WIND       PRES   REMARKS
PUEBLO         CLOUDY    60  53  77 W5        30.30F
LA JUNTA       CLOUDY    64  48  56 SE5       30.27F
LAMAR          CLOUDY    63  48  58 SW5       30.24F
SPRINGFIELD      N/A     60  50  69 NW3       30.28S
$$




USA.gov is the U.S. government's official web portal to all federal, state and local government web resources and services.